Find Starlink 31776

NORAD ID: 59603 Int'l Des: 2024-080 Owner: SPXS Country: US Constellation: starlink operational
LEOCIRCULAR

当前视图

正在加载3D地球...

About Starlink 31776

Starlink 31776 (NORAD 59603) is a starlink constellation satellite (v2 mini) launched Apr 28, 2024 by SPXS of US. It operates in LEO, CIRCULAR orbit with a mass of 730.00 kg.

关于 Starlink 31776

正在加载描述...

即将过境

Passes for default location (London). Set your location on the main map for personalized predictions.

高度历史

Loading altitude history...

两行轨道根数

1 59603U 24080C 26171.37265808 .00000340 00000-0 21870-4 0 9992
2 59603 43.0009 181.7305 0001130 263.1347 96.9376 15.27579482120190
Epoch: Jun 20, 2026 • Age: 29 hours

当前状态

高度 486.5 km
速度 7.63 km/s
星下点 41.25°N, 171.17°E
发射日期 Apr 28, 2024
运行时间 2.1 years
类型 internet

技术详情

分类 Payload
质量 730.00 kg
干质量 700.00 kg
总质量 730.00 kg
长度 0.30 m
直径 4.10 m
跨度 29.00 m
形状 Box + pan
制造商 SPXS
平台类型 Starlink V2M
阶段状态 In Orbit
所有者/国家 SPXS/US

Most Searched